Location: Arpaise
(41.0333°N, 14.7333°E)
Time: 08:07:17
(UTC+00:00)

ALOS 2 - Pass Details

Date: 05 July 2020
Orbit: 630 x 632 km, 97.9° (Epoch: 06 August)

Event Time Altitude Azimuth Distance (km) Brightness Sun altitude
Exits shadow 21:58:12 37° 73° (ENE) 981 3.5 -24.4°
Maximum altitude 21:58:16 37° 71° (ENE) 981 3.5 -24.4°
Drops below altitude 10° 22:02:19 10° 4° (N) 2,021 6.1 -24.6°
Sets 22:04:38 0° 356° (N) 2,934 7.3 -24.7°
